TimePST,TemperatureF,Dew PointF,Humidity,Sea Level PressureIn,VisibilityMPH,Wind Direction,Wind SpeedMPH,Gust SpeedMPH,PrecipitationIn,Events,Conditions,WindDirDegrees,DateUTC
12:55 AM,30.9,14.0,50,30.09,10.0,ESE,12.7,20.7,N/A,,Mostly Cloudy,120,2013-12-06 08:55:00
1:55 AM,30.9,12.9,47,30.08,10.0,ESE,13.8,25.3,N/A,,Overcast,110,2013-12-06 09:55:00
2:55 AM,30.0,15.1,54,30.09,10.0,SE,17.3,25.3,N/A,,Overcast,130,2013-12-06 10:55:00
3:55 AM,30.0,15.1,54,30.07,10.0,ESE,21.9,-,N/A,,Overcast,110,2013-12-06 11:55:00
4:55 AM,28.0,21.9,78,30.06,3.0,East,9.2,-,0.00,Snow,Light Snow,90,2013-12-06 12:55:00
5:33 AM,27.0,23.0,85,30.06,2.0,East,12.7,-,0.01,Snow,Light Snow,80,2013-12-06 13:33:00
5:40 AM,27.0,23.0,85,30.06,1.5,East,11.5,-,0.01,Snow,Light Snow,90,2013-12-06 13:40:00
5:47 AM,27.0,23.0,85,30.06,1.0,East,13.8,-,0.01,Snow,Light Snow,90,2013-12-06 13:47:00
5:55 AM,26.1,23.0,88,30.06,1.0,East,10.4,-,0.01,Snow,Light Snow,90,2013-12-06 13:55:00
6:01 AM,26.1,23.0,88,30.06,0.8,East,11.5,-,0.01,Snow,Light Snow,80,2013-12-06 14:01:00
6:30 AM,26.1,23.0,88,30.05,0.5,East,13.8,-,0.03,Fog-Snow,Snow,80,2013-12-06 14:30:00
6:55 AM,26.1,23.0,88,30.05,0.8,ENE,16.1,-,0.04,Snow,Light Snow,70,2013-12-06 14:55:00
7:17 AM,26.1,23.0,88,30.05,1.0,East,15.0,-,0.01,Snow,Light Snow,80,2013-12-06 15:17:00
7:27 AM,26.1,23.0,88,30.05,1.2,ENE,18.4,-,0.02,Snow,Light Snow,70,2013-12-06 15:27:00
7:36 AM,26.1,23.0,88,30.05,1.8,East,18.4,-,0.02,Snow,Light Snow,80,2013-12-06 15:36:00
7:47 AM,26.1,21.9,84,30.05,2.0,ENE,19.6,-,0.02,Snow,Light Snow,70,2013-12-06 15:47:00
7:55 AM,26.1,21.9,84,30.05,2.0,ENE,20.7,-,0.02,Snow,Light Snow,70,2013-12-06 15:55:00
8:13 AM,26.1,21.9,84,30.05,1.2,East,21.9,-,0.00,Snow,Light Snow,80,2013-12-06 16:13:00
8:39 AM,26.1,21.9,84,30.05,1.8,East,21.9,-,0.00,Snow,Light Snow,80,2013-12-06 16:39:00
8:52 AM,26.6,21.2,80,30.05,1.2,ENE,21.9,-,0.00,Snow,Light Snow,70,2013-12-06 16:52:00
8:55 AM,26.1,21.9,84,30.05,1.0,East,19.6,-,0.00,Snow,Light Snow,80,2013-12-06 16:55:00
9:12 AM,26.1,21.9,84,30.05,2.0,East,23.0,-,0.00,Snow,Light Snow,80,2013-12-06 17:12:00
9:32 AM,26.1,21.9,84,30.05,2.5,East,19.6,-,0.00,Snow,Light Snow,80,2013-12-06 17:32:00
9:46 AM,26.1,21.0,81,30.06,4.0,East,20.7,-,0.00,Snow,Light Snow,80,2013-12-06 17:46:00
9:55 AM,27.0,21.0,78,30.06,7.0,East,19.6,-,0.00,,Overcast,80,2013-12-06 17:55:00
10:55 AM,28.0,19.9,72,30.05,10.0,ENE,25.3,31.1,0.00,,Overcast,70,2013-12-06 18:55:00
11:55 AM,28.9,19.9,69,30.04,10.0,ENE,25.3,32.2,0.00,,Overcast,70,2013-12-06 19:55:00
12:55 PM,30.0,19.9,66,30.03,6.0,ENE,19.6,28.8,0.00,Snow,Light Snow,70,2013-12-06 20:55:00
1:55 PM,30.9,19.0,61,30.02,10.0,East,21.9,-,0.00,,Mostly Cloudy,80,2013-12-06 21:55:00
2:55 PM,30.9,19.9,64,30.03,10.0,East,15.0,-,N/A,,Mostly Cloudy,80,2013-12-06 22:55:00
3:55 PM,30.9,19.9,64,30.03,10.0,ENE,10.4,-,N/A,,Overcast,70,2013-12-06 23:55:00
4:55 PM,30.9,17.1,57,30.05,10.0,NE,13.8,19.6,N/A,,Overcast,50,2013-12-07 00:55:00
5:55 PM,30.0,15.1,54,30.06,10.0,ENE,15.0,24.2,N/A,,Overcast,60,2013-12-07 01:55:00
6:55 PM,30.0,14.0,51,30.08,10.0,ENE,15.0,-,N/A,,Overcast,60,2013-12-07 02:55:00
7:55 PM,28.9,12.9,51,30.09,10.0,NE,12.7,-,N/A,,Mostly Cloudy,50,2013-12-07 03:55:00
8:55 PM,28.0,12.0,51,30.10,10.0,ENE,15.0,-,N/A,,Clear,60,2013-12-07 04:55:00
9:55 PM,27.0,12.0,53,30.12,10.0,ENE,11.5,-,N/A,,Mostly Cloudy,60,2013-12-07 05:55:00
10:55 PM,28.0,12.0,51,30.14,10.0,East,6.9,-,N/A,,Overcast,80,2013-12-07 06:55:00
11:55 PM,27.0,12.0,53,30.14,10.0,ENE,12.7,-,N/A,,Overcast,70,2013-12-07 07:55:00